"Pseudo-MPEC" for C3467H2

Created 2020 Sep 16 20:07:07 UT using Find_Orb

Click here for an explanation of pseudo-MPECs

 
 Astrometry: 
     C3467H2  C2020 09 07.41596 23 32 55.43 +18 35 27.3    ~97BM 20.6 GVNEOCPG96
     C3467H2  C2020 09 07.42155 23 32 52.52 +18 35 49.3    ~97BM 19.8 GVNEOCPG96
     C3467H2  C2020 09 07.42715 23 32 49.61 +18 36 11.6    ~97BM 20.6 GVNEOCPG96
     C3467H2  C2020 09 07.43273 23 32 46.84 +18 36 31.9    ~97BM 21.2 GVNEOCPG96
     C3467H2  C2020 09 07.45375 23 32 36.47 +18 37 51.4    ~97BM 20.5 GVNEOCPI52
     C3467H2  C2020 09 07.45523 23 32 35.77 +18 37 56.4    ~97BM 21.0 GVNEOCPI52
     C3467H2  C2020 09 07.45671 23 32 35.06 +18 38 01.6    ~97BM 20.9 GVNEOCPI52

Station data:
(G96) Mt. Lemmon Survey  (N32.442754 W110.788720)  US/Arizona.  Observers T.
   A. Pruyne, B. M. Africano, E. J. Christensen, G. A. Farneth, D. C. Fuls,
   A. R. Gibbs, A. D. Grauer, H. Gröller, J. A. Johnson, R. A. Kowalski, S.
   M. Larson, G. J. Leonard, D. Rankin, R. L. Seaman, F. C. Shelly. 1.5-m
   reflector + 10K CCD.
(I52) Steward Observatory, Mt. Lemmon Station  (N32.442547 W110.788920)
   US/Arizona.  Observers T. A. Pruyne, B. M. Africano, E. J. Christensen, G.
   A. Farneth, D. C. Fuls, A. R. Gibbs, A. D. Grauer, H. Gröller, J. A.
   Johnson, R. A. Kowalski, S. M. Larson, G. J. Leonard, D. Rankin, R. L.
   Seaman, F. C. Shelly. 1.0-m reflector + CCD.

Orbital elements:  C3467H2
   Perihelion 2021 Jan 6.245558 TT =  5:53:36 (JD 2459220.745558)
Epoch 2020 Sep  7.0 TT = JDT 2459099.5   Earth MOID: 0.0041   AutoNEOCP
M 241.15829205                      (J2000 ecliptic)
n   0.98017370     Peri.  135.35260
a   1.00369250     Node   330.87678
e   0.0269985      Incl.    0.81690
P   1.01/367.27d   H   29.7     G   0.15   q 0.97659428  Q 1.03079073
From 7 observations 2020 Sept. 7 (58.7 min); mean residual 0".30
Residuals in arcseconds: 
200907 G96  .03-  .13-    200907 G96  .55+  .51-    200907 I52  .10-  .26-    
200907 G96  .00   .02-    200907 I52  .04-  .38+    
200907 G96  .39-  .58+    200907 I52  .02+  .05-    

Ephemerides (geocentric):
Date (UTC) HH   RA              Dec         delta   r     elong  mag
---- -- -- --  -------------   -----------  ------ ------ -----  ---
2020 09 16 20  22 41 37.466   +30 51 58.73  .00945 1.0129 144.2 21.0
2020 09 16 21  22 41 20.590   +30 55 03.29  .00945 1.0128 144.1 21.0
2020 09 16 22  22 41 03.689   +30 58 07.69  .00944 1.0128 144.0 21.0
2020 09 16 23  22 40 46.761   +31 01 11.92  .00944 1.0128 143.9 21.0
2020 09 17 00  22 40 29.806   +31 04 15.99  .00944 1.0128 143.9 21.0
2020 09 17 01  22 40 12.825   +31 07 19.90  .00943 1.0128 143.8 21.0
2020 09 17 02  22 39 55.818   +31 10 23.64  .00943 1.0127 143.7 21.0
2020 09 17 03  22 39 38.784   +31 13 27.21  .00942 1.0127 143.7 21.1
2020 09 17 04  22 39 21.725   +31 16 30.62  .00942 1.0127 143.6 21.1
2020 09 17 05  22 39 04.639   +31 19 33.86  .00942 1.0127 143.5 21.1
2020 09 17 06  22 38 47.527   +31 22 36.93  .00941 1.0127 143.4 21.1
2020 09 17 07  22 38 30.389   +31 25 39.83  .00941 1.0126 143.4 21.1
2020 09 17 08  22 38 13.225   +31 28 42.56  .00940 1.0126 143.3 21.1
2020 09 17 09  22 37 56.035   +31 31 45.13  .00940 1.0126 143.2 21.1
2020 09 17 10  22 37 38.819   +31 34 47.52  .00940 1.0126 143.2 21.1
2020 09 17 11  22 37 21.577   +31 37 49.74  .00939 1.0125 143.1 21.1
2020 09 17 12  22 37 04.310   +31 40 51.79  .00939 1.0125 143.0 21.1
2020 09 17 13  22 36 47.016   +31 43 53.67  .00939 1.0125 142.9 21.1
2020 09 17 14  22 36 29.697   +31 46 55.38  .00938 1.0125 142.9 21.1
2020 09 17 15  22 36 12.352   +31 49 56.91  .00938 1.0125 142.8 21.1
2020 09 17 16  22 35 54.982   +31 52 58.27  .00937 1.0124 142.7 21.1
2020 09 17 17  22 35 37.586   +31 55 59.45  .00937 1.0124 142.6 21.1
2020 09 17 18  22 35 20.165   +31 59 00.46  .00937 1.0124 142.6 21.1
2020 09 17 19  22 35 02.718   +32 02 01.29  .00936 1.0124 142.5 21.1
2020 09 17 20  22 34 45.245   +32 05 01.95  .00936 1.0124 142.4 21.1
2020 09 17 21  22 34 27.747   +32 08 02.43  .00935 1.0123 142.3 21.1
2020 09 17 22  22 34 10.224   +32 11 02.74  .00935 1.0123 142.3 21.1
2020 09 17 23  22 33 52.676   +32 14 02.86  .00935 1.0123 142.2 21.1
2020 09 18 00  22 33 35.102   +32 17 02.81  .00934 1.0123 142.1 21.1
2020 09 18 01  22 33 17.503   +32 20 02.59  .00934 1.0122 142.1 21.1
2020 09 18 02  22 32 59.880   +32 23 02.18  .00934 1.0122 142.0 21.1
2020 09 18 03  22 32 42.230   +32 26 01.59  .00933 1.0122 141.9 21.1
2020 09 18 04  22 32 24.556   +32 29 00.83  .00933 1.0122 141.8 21.1
2020 09 18 05  22 32 06.857   +32 31 59.88  .00933 1.0122 141.8 21.1
2020 09 18 06  22 31 49.133   +32 34 58.76  .00932 1.0121 141.7 21.1
2020 09 18 07  22 31 31.384   +32 37 57.45  .00932 1.0121 141.6 21.1
2020 09 18 08  22 31 13.611   +32 40 55.97  .00931 1.0121 141.5 21.1
2020 09 18 09  22 30 55.812   +32 43 54.30  .00931 1.0121 141.5 21.1
2020 09 18 10  22 30 37.989   +32 46 52.45  .00931 1.0120 141.4 21.1
2020 09 18 11  22 30 20.140   +32 49 50.42  .00930 1.0120 141.3 21.1
2020 09 18 12  22 30 02.268   +32 52 48.20  .00930 1.0120 141.2 21.1
2020 09 18 13  22 29 44.370   +32 55 45.81  .00930 1.0120 141.2 21.1
2020 09 18 14  22 29 26.448   +32 58 43.23  .00929 1.0120 141.1 21.1
2020 09 18 15  22 29 08.502   +33 01 40.47  .00929 1.0119 141.0 21.1
2020 09 18 16  22 28 50.531   +33 04 37.52  .00928 1.0119 140.9 21.1
2020 09 18 17  22 28 32.535   +33 07 34.39  .00928 1.0119 140.8 21.1
2020 09 18 18  22 28 14.515   +33 10 31.08  .00928 1.0119 140.8 21.1
2020 09 18 19  22 27 56.471   +33 13 27.58  .00927 1.0118 140.7 21.1